BEIDOU-2 G4

Last updated on Tue Oct 15 2024 00:02:39 GMT+0000 (Coordinated Universal Time)

1 37210U 10057A 24288.57896750 -.00000112 00000+0 00000+0 0 9990 2 37210 2.1306 69.8274 0008507 167.6589 154.6350 1.00270030 51165
UTC large
Height (km)
Speed (km/s)
/
Latitude / Longitude
Inclination (degrees)
Orbital Period (minutes)
Azimuth
Elevation
Range (km)
Doppler Factor

Next 0 passes for location: London (51.5072 / 0.1276)

Sorry there are no passes over London.